Helicity
83 117 111 87 91 111 138 182 184 270 371 495 546 579 618 597 608 616 733 492 469 402
94 99 90 94 139 167 169 225 261 310 376 463 506 565 583 598 609 543 490 488 542 567
113 108 97 68 66 147 222 250 254 281 302 342 396 422 465 499 545 498 514 531 452 432
152 117 95 98 103 137 180 242 283 304 304 320 397 421 483 483 474 476 481 415 432 420
159 102 88 94 92 137 177 227 230 265 284 341 341 418 404 447 448 440 412 438 433 416
155 122 101 95 102 108 161 188 189 207 199 298 359 366 395 446 470 469 384 295 275 298
144 108 101 108 122 117 139 126 137 167 177 218 327 372 423 492 437 366 368 295 270 271
161 139 94 119 125 95 96 105 122 167 215 250 309 395 466 381 361 326 310 251 207 187
148 127 114 133 53 59 86 85 121 149 157 226 236 231 170 211 188 181 189 175 164 149
126 121 91 21 42 13 35 88 134 101 119 100 105 112 116 157 164 158 175 196 204 172
128 53 33 52 42 44 39 46 83 92 92 79 77 84 114 169 151 160 150 130 121 137
-32 39 30 26 51 58 64 71 71 88 102 113 103 114 138 152 142 157 154 152 150 152
44 16 -17 5 58 77 80 82 75 65 66 93 98 109 132 140 148 157 163 172 165 139
33 29 19 42 66 106 115 113 115 112 96 98 82 79 90 95 107 134 159 174 173 147
Wind_Speed
79 80 79 79 78 79 79 75 66 65 62 60 59 60 59 61 61 59 59 58 59 66
82 82 82 82 81 79 77 74 71 63 60 58 58 57 55 55 55 51 55 53 54 62
84 84 85 84 84 80 79 74 70 66 60 57 56 55 55 54 51 50 56 57 53 51
77 78 79 81 81 79 75 71 68 64 61 55 54 51 51 51 51 52 51 48 48 45
72 73 75 77 76 72 75 73 71 66 61 56 54 48 45 45 44 44 41 39 38 36
66 67 69 69 70 68 65 66 65 65 63 57 45 41 39 35 35 31 31 35 37 42
58 59 60 59 57 56 51 51 50 49 51 50 47 43 45 39 39 37 38 43 41 37
46 46 48 51 53 47 43 45 42 36 40 38 41 43 31 29 33 34 31 29 26 22
38 39 45 46 40 40 37 38 32 31 24 24 23 20 21 24 28 21 20 23 25 25
36 38 39 34 35 34 33 29 28 24 23 17 16 22 19 16 19 17 19 20 19 19
27 32 25 27 29 29 29 28 24 23 24 21 19 18 18 13 15 15 14 14 16 17
23 22 24 24 28 29 28 27 26 25 23 23 21 16 13 12 13 11 11 14 17 18
17 17 20 24 27 28 26 25 25 24 23 22 20 19 15 12 13 12 15 18 17 14
16 15 18 23 26 26 24 25 27 27 25 22 19 16 14 11 10 9 10 13 14 14
Wind_Direction
306 303 300 297 295 291 287 286 285 280 276 270 266 265 264 264 262 258 263 258 273 263
306 304 301 297 295 293 291 288 284 281 277 271 266 262 260 261 258 257 260 263 269 268
306 305 303 301 297 294 292 289 286 282 276 272 265 260 259 258 256 254 258 265 261 262
308 309 308 306 302 299 296 291 286 281 277 272 267 262 259 259 258 255 258 256 255 257
308 311 311 310 308 304 297 292 287 282 277 271 264 260 255 258 254 247 247 249 245 251
307 310 312 313 312 309 302 298 292 286 278 269 265 259 257 252 245 242 245 242 248 255
309 312 315 319 318 317 314 310 300 294 287 276 266 264 260 253 252 257 259 259 258 256
314 320 321 321 319 324 327 319 316 311 297 278 265 262 266 261 256 267 262 261 262 260
323 325 324 330 331 331 338 333 336 331 337 294 282 256 262 278 272 258 253 254 261 266
324 326 333 335 338 339 358 354 359 355 4 323 311 285 280 294 274 267 262 266 270 278
341 330 359 355 2 2 8 24 353 356 353 345 349 326 305 309 295 289 296 293 283 280
352 342 342 355 348 350 359 2 358 357 354 353 357 12 2 345 317 318 323 316 302 298
337 351 357 2 15 18 34 36 32 32 38 41 34 43 36 25 351 336 322 318 318 328
333 23 43 15 7 18 30 20 12 11 15 19 19 14 13 20 8 7 360 342 331 337